Terug naar catalogus

USA 375

ActiefMilitairVLEO
NORAD 60158·PAYLOAD·🇺🇸 United States

Gelanceerd Jun 29, 2024 vanaf Vandenberg Space Force Base

Loading…

Volgende Passages (komende 24 uur)

TLE

VerouderdSource: Mike McCants

Epoch: Aug 25, 2026, 00:53 UTC

1 60158U 24121A   26237.03736034 0.00000000  00000-0  00000-0 0    09
2 60158  70.0190 214.1331 0003000 236.7095 123.2904 14.96713439    07

Volg USA 375 in realtime met AllMySat

Download on the App Store